Location: Saint-Usage
(47.1052°N, 5.2587°E)
Time: 08:54:43
(UTC+01:00)

NOAA 19 - Pass Details

Date: 28 November 2021
Orbit: 841 x 860 km, 99.2° (Epoch: 26 January)

Event Time Altitude Azimuth Distance (km) Brightness Sun altitude
Rises 20:46:06 0° 213° (SSW) 3,384 8.6 -39.0°
Reaches altitude 10° 20:49:28 10° 235° (SW) 2,456 8.0 -39.5°
Maximum altitude 20:52:40 16° 271° (W) 2,082 7.8 -40.1°
Drops below altitude 10° 20:55:53 10° 308° (NW) 2,469 8.2 -40.6°
Sets 20:59:18 0° 330° (NNW) 3,412 8.8 -41.2°
